Location: *
(50.7954°S, 177.8270°W)
Time: 12:08:07
(UTC+00:00)

Daily predictions for brighter satellites

Satellite Brightness Start Highest point End
(mag) Time Altitude Azimuth Time Altitude Azimuth Time Altitude Azimuth
CZ-4C R/B 3.8 15:35:02 37° SSE 15:35:02 37° SSE 15:38:41 10° SE
Okean O Rocket 4.5 15:36:15 10° ENE 15:37:18 15° E 15:37:18 15° E
Cosmos 1697 Rocket 3.6 16:02:54 45° E 16:02:54 45° E 16:07:34 10° SE
USA 234 3.5 15:56:38 10° E 16:02:51 63° SSE 16:02:51 63° SSE
ATLAS 2AS CENTAUR R/B 4.0 16:04:40 25° S 16:04:40 25° S 16:09:03 10° SE
CZ-4B R/B 4.1 16:05:52 10° NE 16:11:14 48° ESE 16:12:45 39° SSE
Lacrosse 5 rocket 3.9 16:16:12 17° ESE 16:16:12 17° ESE 16:17:15 10° ESE
Cosmos 1937 Rocket 4.4 16:15:37 44° E 16:15:37 44° E 16:19:37 10° NE
Nadezhda 4 Rocket 4.1 16:19:04 67° SSE 16:19:04 67° SSE 16:24:29 10° SSE
H-2A R/B 4.5 16:28:14 10° SSE 16:29:09 16° SSE 16:29:09 16° SSE
ATLAS CENTAUR R/B 3.6 16:35:12 21° SSE 16:35:29 21° SSE 16:39:13 10° ESE
Meteor 1-21 4.3 16:35:57 60° N 16:37:01 79° E 16:42:49 10° SSE
Cosmos 1726 4.3 16:43:50 21° NE 16:43:50 21° NE 16:45:14 10° NNE
Cosmos 2369 Rocket 4.5 16:45:23 11° S 16:45:23 11° S 16:46:25 10° S
NOSS 2-3 (E) 4.4 16:48:22 68° WNW 16:48:34 69° NW 16:54:08 10° NNE
Cosmos 2263 Rocket 2.5 16:49:22 41° S 16:51:20 65° SE 16:57:02 10° NE
Helios 1A Rocket 4.4 16:51:36 10° NE 16:55:22 35° ESE 16:57:51 19° S
Envisat 3.1 16:53:08 10° NNE 16:58:15 76° ESE 17:01:08 27° S
NOAA 12 4.4 16:55:22 10° NNE 17:00:35 65° ESE 17:05:26 12° S
Cosmos 1461 4.1 17:03:00 31° NNE 17:03:00 31° NNE 17:05:10 10° NNE
Cosmos 858 Rocket 4.4 17:03:38 69° WNW 17:03:38 69° WNW 17:08:46 10° NNE
NOSS 3-1 (C) 4.3 17:06:26 29° NNW 17:06:26 29° NNW 17:09:43 10° N
Cosmos 2285 Rocket 4.3 17:02:17 18° SSW 17:07:17 68° ESE 17:13:44 10° NE
Meteor 2-10 3.8 17:06:37 56° SW 17:07:39 74° W 17:12:46 10° N
USA 267 3.7 17:02:40 10° ESE 17:09:11 58° NE 17:14:36 15° NW
Okean O Rocket 1.9 17:11:06 10° N 17:14:45 51° NNW 17:14:45 51° NNW
Cosmos 1980 Rocket 2.1 17:14:37 20° NNW 17:18:38 87° WSW 17:24:20 10° SSE
Cosmos 1763 Rocket 3.4 17:15:53 27° NNW 17:18:53 79° WSW 17:24:13 10° SSE
Cosmos 2195 Rocket 4.4 17:12:51 10° NNW 17:19:13 71° WSW 17:25:39 10° S
CORIOLIS 4.1 17:15:19 10° NNE 17:20:47 88° WNW 17:26:13 10° SSW
CZ-4C R/B 3.5 17:20:13 30° SW 17:21:34 33° SSW 17:27:10 10° SE
Cosmos 2369 3.8 17:20:46 46° W 17:22:04 56° SW 17:27:44 10° SSE
ARGOS Delta rocket 4.0 17:18:24 10° NNE 17:23:21 72° ESE 17:28:04 10° S
USA 229 DEB 4.2 17:23:20 35° WNW 17:23:36 35° WNW 17:29:24 10° N
USA 229 4.2 17:23:25 35° WNW 17:23:44 35° WNW 17:29:32 10° N
Cosmos 1898 Rocket 4.4 17:26:06 33° NW 17:26:06 33° NW 17:29:50 10° NNW
Cosmos 1844 Rocket 4.1 17:23:06 12° SSW 17:27:51 35° SE 17:33:04 10° ENE
Cosmos 468 Rocket 4.0 17:30:50 34° WNW 17:32:54 55° WSW 17:38:06 10° SSE
Feng Yun 1-1 Rocket 4.2 17:27:51 10° NNE 17:33:23 88° ESE 17:39:09 10° SSW
NOSS 3-1 (A) 3.9 17:34:58 34° W 17:35:46 35° WNW 17:40:46 10° N
Aureole 3 Rocket 3.0 17:36:45 47° WNW 17:36:45 47° WNW 17:40:42 10° N
KORONAS-FOTON 4.2 17:33:02 10° N 17:36:50 63° E 17:40:43 10° SSE
Cosmos 2026 Rocket 4.0 17:32:16 10° NNW 17:38:22 60° WSW 17:44:39 10° S
Cosmos 1939 Rocket 3.9 17:37:29 10° NE 17:41:27 48° ESE 17:45:31 10° S
Cosmos 1570 Rocket 4.0 17:36:15 10° NNW 17:41:40 85° WSW 17:47:09 10° SSE
Cosmos 2278 3.7 17:38:08 22° NW 17:41:46 57° SW 17:47:26 10° SSE
Cosmos 540 Rocket 3.5 17:36:35 10° NNW 17:41:49 88° ENE 17:47:05 10° SSE
Cosmos 1689 Rocket 2.0 17:38:59 10° SSE 17:42:05 89° WSW 17:45:09 10° NNW
SMAP 3.3 17:38:55 10° N 17:43:28 47° W 17:45:30 29° SW
SL-16 R/B 3.1 17:38:02 10° N 17:43:31 50° ENE 17:49:02 10° SE
CZ-4 R/B 2.5 17:40:39 10° NE 17:44:43 46° ESE 17:48:52 10° S
FengYun 1-2 T 4.2 17:40:08 10° NNE 17:45:46 84° WNW 17:51:31 10° SSW
USA 234 3.3 17:39:37 10° NE 17:46:11 67° NW 17:50:12 25° WSW
Cosmos 1697 Rocket 3.2 17:44:40 32° W 17:46:14 38° SW 17:51:34 10° SSE
Cosmos 1626 3.9 17:43:28 10° NNE 17:46:54 35° E 17:50:24 10° SSE
Cosmos 841 Rocket 3.4 17:42:35 10° NNW 17:47:54 82° WSW 17:53:18 10° SSE
Cosmos 2228 3.0 17:43:47 10° S 17:48:11 85° E 17:52:30 10° N
Cosmos 2278 Rocket 4.3 17:44:32 10° S 17:48:27 18° SSE 17:52:21 10° ESE
Cosmos 372 Rocket 3.9 17:45:25 24° SW 17:48:29 61° WNW 17:53:31 10° N
Cosmos 1953 3.2 17:50:07 31° WNW 17:50:07 31° WNW 17:52:58 10° NNW
Okean-O 2.9 17:45:52 10° NNE 17:50:19 69° ESE 17:54:51 10° S
Cosmos 1092 Rocket 4.4 17:45:56 10° NW 17:51:42 38° WSW 17:57:29 10° S
CZ-4B R/B 3.9 17:46:53 10° NNW 17:51:57 34° W 17:54:39 23° SW
Lacrosse 5 rocket 2.1 17:51:51 31° SW 17:52:46 36° S 17:56:37 10° ESE
Cosmos 1908 3.2 17:52:24 22° SSW 17:54:45 59° W 17:58:34 10° N
Cosmos 2150 Rocket 4.0 17:51:02 15° SSW 17:55:36 75° WNW 18:00:56 10° NNE
Cosmos 1125 Rocket 3.6 17:51:01 11° SSW 17:56:09 77° ESE 18:01:25 10° NNE
Cosmos 1937 Rocket 4.4 17:55:50 27° W 17:56:13 27° W 18:00:31 10° NNW
ATLAS 2AS CENTAUR R/B 3.8 17:52:05 16° SW 17:56:24 32° SSE 18:02:22 10° E
CZ-2D R/B 4.0 17:52:33 10° NNE 17:56:24 56° ESE 18:00:20 10° S
YAOGAN 6 3.4 17:54:13 10° NNW 17:57:05 31° WNW 17:57:05 31° WNW
Meteor 2-15 4.4 17:52:50 10° S 17:59:09 87° WNW 18:05:21 10° N
Cosmos 1300 3.5 17:56:05 10° S 17:59:56 54° ESE 18:03:44 10° NNE
Cosmos 1025 Rocket 3.8 18:00:15 29° W 18:00:45 30° WSW 18:04:37 10° S
CZ-4 R/B 4.4 18:01:06 10° NNE 18:05:16 89° NW 18:09:31 10° SSW
COSMO-SKYMED 1 2.8 18:02:59 10° SSE 18:07:26 76° ENE 18:11:51 10° N
H-2A R/B 4.2 18:05:25 10° SSW 18:06:15 13° SSW 18:06:15 13° SSW
Meteor 1-24 Rocket 4.2 18:03:14 10° N 18:08:32 61° E 18:13:51 10° SSE
ASTEX 1 3.4 18:03:52 10° N 18:08:43 58° W 18:13:41 10° SSW
ADEOS Rocket 2.7 18:04:08 10° SSE 18:09:44 79° WSW 18:15:21 10° NNW
Cosmos 1892 Rocket 4.0 18:06:37 10° N 18:11:05 69° E 18:15:34 10° SSE
Cosmos 1655 Rocket 4.0 18:08:51 10° NNW 18:15:06 71° WSW 18:21:26 10° S
BREEZE-M DEB (TANK) 4.2 18:12:42 18° WNW 18:15:20 35° NNW 18:25:06 10° NE
ATLAS CENTAUR R/B 2.1 18:11:23 15° SW 18:15:20 61° SE 18:20:10 10° NE
Cosmos 1726 4.3 18:18:23 11° WNW 18:18:23 11° WNW 18:18:46 10° NW
Cosmos 1356 Rocket 3.3 18:16:13 10° SSW 18:20:24 76° W 18:24:37 10° N
YAOGAN 1 2.6 18:16:34 10° NNE 18:20:57 86° ESE 18:25:24 10° SSW
IRS-1C Rocket 4.4 18:16:03 10° N 18:21:06 44° W 18:26:13 10° SSW
Cosmos 2266 Rocket 4.0 18:15:41 10° NNW 18:22:00 81° W 18:28:18 10° S
Cosmos 2322 Rocket 2.4 18:17:47 10° NNW 18:23:31 80° ENE 18:29:18 10° SSE
Meteor 2-5 Rocket 3.7 18:18:09 10° NNW 18:23:46 81° WSW 18:29:25 10° S
Cosmos 1674 3.3 18:22:42 10° NW 18:26:12 35° WSW 18:29:47 10° S
Aureole 3 4.1 18:22:09 10° SSW 18:26:41 37° W 18:30:19 10° NNW
Cosmos 2058 Rocket 3.0 18:22:40 10° SSW 18:27:10 77° W 18:31:37 10° N
USA 186 4.2 18:26:14 10° ENE 18:28:03 17° ESE 18:29:57 10° SSE
Cosmos 2292 Rocket 4.2 18:23:50 10° NNW 18:30:18 65° W 18:35:10 10° S
Helios 1A Rocket 3.9 18:27:02 10° NNW 18:30:35 27° W 18:34:06 11° SW
Cosmos 2369 Rocket 4.5 18:30:16 10° S 18:31:19 10° S 18:32:21 10° SSE
Cosmos 2315 Rocket 4.0 18:28:17 10° SSW 18:34:36 73° W 18:40:49 10° N
Cosmos 2263 Rocket 3.3 18:31:05 14° SW 18:34:49 26° WNW 18:39:27 10° NNW
Cosmos 1606 Rocket 4.2 18:31:03 10° SSW 18:35:02 34° W 18:38:59 10° NNW
Envisat 4.4 18:34:25 10° NW 18:37:53 18° W 18:41:20 10° SW
ARGOS 4.0 18:34:40 10° NE 18:39:53 51° ESE 18:45:10 10° S
USA 116 3.6 18:37:05 10° SSE 18:40:15 67° ENE 18:43:31 10° N
Cosmos 1437 3.9 18:40:38 10° WNW 18:43:03 21° WSW 18:45:30 10° SSW
FREGAT/IRIS 4.5 18:49:00 10° NE 18:51:21 26° ESE 18:53:45 10° S
USA 267 3.3 18:45:45 10° ESE 18:52:20 69° SSW 18:58:53 10° WNW
ATLAS 5 CENTAUR R/B 2.7 18:46:24 10° NW 18:53:35 90° E 19:00:02 10° SE
Cosmos 1943 Rocket 4.4 18:51:20 10° S 18:53:37 12° SSE 18:55:55 10° SE
Cosmos 2237 4.5 18:48:23 10° NNW 18:54:05 79° ENE 18:59:52 10° SSE
Cosmos 2360 Rocket 2.5 18:48:54 10° NNW 18:54:33 76° ENE 19:00:15 10° SSE
Cosmos 1844 3.7 18:48:57 10° SSW 18:54:39 83° WNW 19:00:21 10° NNE
SKYMED 2 4.0 18:51:16 10° S 18:55:24 40° WSW 18:59:30 10° NW
H-2A R/B 2.1 18:50:37 10° NNE 18:55:35 80° ESE 19:00:44 10° SSW
Cosmos 2084 3.7 18:55:07 10° SW 18:59:22 59° NW 19:03:36 10° NNE
Cosmos 1980 Rocket 3.3 18:59:00 10° W 19:03:27 23° SW 19:07:56 10° SSE
Okean 1-7 Rocket 3.9 19:02:28 10° NNW 19:06:47 45° WSW 19:11:13 10° S
Resurs 01 Rocket 3.8 19:04:07 10° ENE 19:07:41 23° ESE 19:11:17 10° S
Cosmos 1812 Rocket 3.7 19:05:01 10° S 19:09:37 89° ESE 19:14:09 10° N
CZ-4C R/B 3.7 19:06:23 10° SW 19:11:56 26° S 19:16:43 10° ESE
Cosmos 1844 Rocket 3.0 19:06:25 10° SW 19:12:01 53° WNW 19:17:32 10° N
